| time (UTC) | temp C | wind direction | speed KPH | gust KPH | rain 1hr cm | rain 24hr cm | rain mn cm | humidity % | barometer mb |
| 20260504041554 | 12 | 180 | 8.0 | 22.5 | 0.00 | 0.13 | 0.00 | 65 | 1013.3 |
| 20260504040055 | 12 | 150 | 6.4 | 24.1 | 0.00 | 0.13 | 0.00 | 65 | 1013.4 |
| 20260504034557 | 12 | 136 | 4.8 | 16.1 | 0.00 | 0.13 | 0.13 | 65 | 1013.6 |
| 20260504033048 | 12 | 109 | 8.0 | 20.9 | 0.00 | 0.13 | 0.13 | 64 | 1013.7 |
| 20260504031551 | 12 | 150 | 6.4 | 17.7 | 0.00 | 0.13 | 0.13 | 64 | 1013.7 |
| 20260504030055 | 12 | 186 | 6.4 | 16.1 | 0.00 | 0.13 | 0.13 | 63 | 1013.9 |
| 20260504024555 | 12 | 184 | 4.8 | 22.5 | 0.00 | 0.13 | 0.13 | 63 | 1014.2 |
| 20260504023049 | 13 | 134 | 6.4 | 19.3 | 0.00 | 0.13 | 0.13 | 62 | 1014.2 |
| 20260504021554 | 13 | 179 | 4.8 | 16.1 | 0.00 | 0.13 | 0.13 | 61 | 1014.2 |
| 20260504020117 | 13 | 148 | 4.8 | 16.1 | 0.00 | 0.13 | 0.13 | 60 | 1014.3 |
| 20260504014547 | 13 | 146 | 4.8 | 16.1 | 0.00 | 0.13 | 0.13 | 60 | 1014.3 |
| 20260504013110 | 13 | 189 | 3.2 | 12.9 | 0.00 | 0.13 | 0.13 | 59 | 1014.4 |
| 20260504011552 | 13 | 0 | 6.4 | 19.3 | 0.00 | 0.13 | 0.13 | 58 | 1014.3 |
| 20260504010047 | 13 | 184 | 4.8 | 17.7 | 0.00 | 0.13 | 0.13 | 57 | 1014.4 |
| 20260504004548 | 13 | 195 | 3.2 | 12.9 | 0.00 | 0.13 | 0.13 | 57 | 1014.3 |
| 20260504003047 | 13 | 175 | 8.0 | 16.1 | 0.00 | 0.13 | 0.13 | 57 | 1014.5 |
| 20260504001550 | 13 | 144 | 1.6 | 11.3 | 0.00 | 0.13 | 0.13 | 57 | 1014.4 |
| 20260504000049 | 13 | 163 | 1.6 | 14.5 | 0.00 | 0.13 | 0.13 | 58 | 1014.5 |
| 20260503234544 | 14 | 151 | 3.2 | 19.3 | 0.00 | 0.13 | 0.13 | 58 | 1014.6 |
| 20260503233048 | 13 | 0 | 1.6 | 14.5 | 0.00 | 0.13 | 0.13 | 58 | 1014.7 |
| 20260503231548 | 12 | 213 | 1.6 | 11.3 | 0.00 | 0.13 | 0.13 | 62 | 1014.6 |
| 20260503230048 | 12 | 0 | 0.0 | 4.8 | 0.00 | 0.13 | 0.13 | 70 | 1014.5 |
| 20260503224555 | 12 | 0 | 1.6 | 8.0 | 0.00 | 0.13 | 0.13 | 70 | 1014.6 |
| 20260503223051 | 12 | 123 | 1.6 | 14.5 | 0.00 | 0.13 | 0.13 | 70 | 1015.1 |
| 20260503221600 | 12 | 121 | 4.8 | 12.9 | 0.00 | 0.13 | 0.13 | 69 | 1015.2 |
| 20260503220052 | 13 | 164 | 4.8 | 11.3 | 0.00 | 0.13 | 0.13 | 67 | 1015.3 |
| 20260503214547 | 12 | 180 | 6.4 | 16.1 | 0.00 | 0.13 | 0.13 | 69 | 1015.5 |
| 20260503213051 | 12 | 121 | 4.8 | 11.3 | 0.00 | 0.13 | 0.13 | 67 | 1016.0 |
| 20260503211549 | 12 | 0 | 1.6 | 6.4 | 0.00 | 0.13 | 0.13 | 76 | 1016.3 |
| 20260503210053 | 11 | 132 | 0.0 | 6.4 | 0.00 | 0.13 | 0.13 | 79 | 1016.4 |
| 20260503204614 | 10 | 0 | 0.0 | 4.8 | 0.03 | 0.13 | 0.13 | 82 | 1016.8 |
| 20260503203052 | 10 | 0 | 0.0 | 3.2 | 0.13 | 0.13 | 0.13 | 82 | 1017.1 |
| 20260503201549 | 9 | 0 | 0.0 | 6.4 | 0.13 | 0.13 | 0.13 | 84 | 1017.5 |
| 20260503200052 | 9 | 0 | 0.0 | 1.6 | 0.13 | 0.13 | 0.13 | 78 | 1018.3 |
| 20260503194551 | 10 | 0 | 0.0 | 11.3 | 0.08 | 0.08 | 0.08 | 74 | 1018.8 |
| 20260503193056 | 11 | 40 | 3.2 | 22.5 | 0.00 | 0.00 | 0.00 | 68 | 1019.5 |
| 20260503191608 | 12 | 128 | 9.7 | 27.4 | 0.00 | 0.00 | 0.00 | 57 | 1019.3 |
| 20260503190054 | 13 | 165 | 6.4 | 20.9 | 0.00 | 0.00 | 0.00 | 47 | 1018.4 |
| 20260503184548 | 14 | 165 | 6.4 | 27.4 | 0.00 | 0.00 | 0.00 | 44 | 1018.3 |
| 20260503183050 | 14 | 251 | 6.4 | 25.7 | 0.00 | 0.00 | 0.00 | 44 | 1018.5 |
| 20260503181553 | 15 | 153 | 6.4 | 24.1 | 0.00 | 0.00 | 0.00 | 43 | 1018.7 |
| 20260503180100 | 15 | 261 | 9.7 | 27.4 | 0.00 | 0.00 | 0.00 | 40 | 1018.8 |
| 20260503174554 | 15 | 336 | 9.7 | 27.4 | 0.00 | 0.00 | 0.00 | 41 | 1019.2 |
| 20260503173051 | 15 | 206 | 6.4 | 27.4 | 0.00 | 0.00 | 0.00 | 40 | 1019.3 |
| 20260503171554 | 16 | 190 | 4.8 | 33.8 | 0.00 | 0.00 | 0.00 | 42 | 1019.4 |
| 20260503160107 | 14 | 130 | 6.4 | 29.0 | 0.00 | 0.00 | 0.00 | 45 | 1020.4 |
| 20260503081551 | 2 | 0 | 0.0 | 1.6 | 0.00 | 0.00 | 0.00 | 74 | 1020.2 |
| 20260503071603 | 2 | 0 | 0.0 | 3.2 | 0.00 | 0.00 | 0.00 | 73 | 1020.3 |
| 20260503070318 | 2 | 0 | 0.0 | 3.2 | 0.00 | 0.00 | 0.00 | 73 | 1020.4 |
| 20260503054613 | 2 | 0 | 0.0 | 1.6 | 0.00 | 0.00 | 0.00 | 76 | 1020.9 |
| 20260503053053 | 2 | 0 | 0.0 | 1.6 | 0.00 | 0.00 | 0.00 | 77 | 1021.1 |
| 20260503051553 | 2 | 0 | 0.0 | 0.0 | 0.00 | 0.00 | 0.00 | 75 | 1021.0 |
| 20260503050052 | 2 | 0 | 0.0 | 0.0 | 0.00 | 0.00 | 0.00 | 74 | 1021.0 |
| 20260503044549 | 2 | 0 | 0.0 | 0.0 | 0.00 | 0.00 | 0.00 | 74 | 1021.2 |
| 20260503043055 | 2 | 0 | 0.0 | 0.0 | 0.00 | 0.00 | 0.00 | 73 | 1021.0 |